ASIASAT 9 (42942 NORAD) Tracking and Keplerian Element Data

This shows tracking and keplerian element data for the satellite.

Feedback or suggestion? Click here.




ElementValue
Catalog42942
NameASIASAT 9
Epoch Orbit414
Epoch Day318.32550836
Epoch Year2018
RAAN123.1436
Inclination0.0112
Eccentricity0.000182
Argument of Perigee105.8309
Mean Anonmoly63.7155
Mean Motion1.00270516
Decay Rate-3.59E-06
L11 42942U 17057A 18318.32550836 -.00000359 00000-0 00000+0 0 9991
L22 42942 0.0112 123.1436 0001820 105.8309 63.7155 1.00270516 4142

Live tracking and technical data element details for ASIASAT 9 (NORAD 42942). ASIASAT 9 can be tracked NOW for your location showing map with azimuth and elevation plus other details from your city location.

Track the satellite on the map from your city or location and see movement details for azimuth, elevation, latitude, longitude, range, height, and movement on the map or in text.







IsCatalogInMostPopularTable: catalog: 42942, numindb: 153
Update: records affected: 1



GetName: 42942 ASIASAT 9

Hit Count: updated at: Fri, 16 Nov 2018 10:00:12 GMT